QPF
0.02 0.02 0.03 0.05 0.04 0.05 0.04 0.04 0.04 0.02 0.01 0.01 0.01 0.01 0.01 0.02 0.03 0.03 0.03 0.04 0.04 0.03 0.03 0.03 0.03 0.04 0.04 0.06 0.12 0.14 0.09 0.05 0.04 0.06 0.07 0.07 0.06 0.05
0.03 0.03 0.03 0.04 0.05 0.05 0.06 0.04 0.04 0.03 0.01 0.01 0.01 0.01 0.01 0.01 0.02 0.02 0.03 0.04 0.04 0.03 0.03 0.04 0.03 0.04 0.04 0.06 0.08 0.12 0.11 0.07 0.04 0.04 0.05 0.06 0.06 0.06
0.03 0.03 0.02 0.02 0.04 0.04 0.06 0.06 0.04 0.03 0.02 0.01 0.01 0.01 0.02 0.02 0.03 0.03 0.03 0.03 0.04 0.04 0.05 0.05 0.04 0.04 0.05 0.06 0.08 0.10 0.10 0.07 0.04 0.03 0.04 0.04 0.06 0.06
0.03 0.03 0.03 0.03 0.03 0.03 0.04 0.06 0.05 0.04 0.04 0.02 0.01 0.01 0.01 0.02 0.02 0.03 0.04 0.04 0.04 0.04 0.05 0.05 0.04 0.04 0.04 0.05 0.07 0.08 0.09 0.08 0.05 0.03 0.03 0.03 0.04 0.06
0.03 0.03 0.03 0.03 0.03 0.03 0.03 0.04 0.05 0.04 0.04 0.04 0.03 0.03 0.02 0.01 0.02 0.02 0.03 0.05 0.05 0.06 0.06 0.05 0.05 0.04 0.05 0.05 0.07 0.08 0.08 0.08 0.06 0.04 0.03 0.04 0.05 0.05
0.04 0.04 0.03 0.03 0.03 0.03 0.03 0.04 0.04 0.04 0.03 0.03 0.03 0.03 0.02 0.02 0.02 0.02 0.02 0.03 0.05 0.06 0.06 0.06 0.06 0.06 0.05 0.06 0.06 0.08 0.09 0.08 0.07 0.05 0.04 0.04 0.05 0.06
0.06 0.05 0.04 0.04 0.03 0.03 0.03 0.03 0.05 0.04 0.03 0.03 0.03 0.02 0.02 0.02 0.02 0.02 0.03 0.03 0.04 0.05 0.06 0.06 0.06 0.06 0.07 0.07 0.07 0.08 0.09 0.09 0.08 0.07 0.06 0.05 0.05 0.05
0.07 0.07 0.06 0.05 0.05 0.04 0.04 0.04 0.04 0.04 0.03 0.03 0.03 0.02 0.02 0.01 0.01 0.02 0.03 0.04 0.04 0.05 0.05 0.06 0.06 0.07 0.07 0.07 0.07 0.08 0.09 0.10 0.11 0.09 0.07 0.05 0.05 0.04
0.06 0.06 0.06 0.06 0.05 0.04 0.04 0.04 0.04 0.04 0.03 0.03 0.02 0.01 0.01 0.01 0.02 0.03 0.03 0.03 0.04 0.05 0.07 0.07 0.06 0.06 0.07 0.07 0.07 0.07 0.08 0.10 0.11 0.11 0.09 0.06 0.06 0.05
0.04 0.05 0.05 0.05 0.04 0.04 0.04 0.03 0.02 0.02 0.02 0.02 0.01 0.01 0.01 0.01 0.02 0.02 0.03 0.04 0.05 0.06 0.06 0.07 0.06 0.06 0.07 0.07 0.07 0.07 0.07 0.08 0.10 0.11 0.11 0.09 0.08 0.07
0.05 0.04 0.04 0.04 0.04 0.04 0.04 0.03 0.02 0.01 0.01 0.02 0.02 0.02 0.02 0.02 0.03 0.03 0.04 0.05 0.05 0.05 0.05 0.06 0.06 0.05 0.06 0.06 0.07 0.07 0.07 0.07 0.09 0.09 0.10 0.10 0.09 0.08
0.04 0.04 0.05 0.05 0.05 0.05 0.04 0.03 0.03 0.02 0.02 0.02 0.02 0.03 0.02 0.02 0.03 0.03 0.04 0.04 0.05 0.05 0.05 0.05 0.05 0.04 0.05 0.06 0.06 0.06 0.07 0.08 0.08 0.09 0.09 0.10 0.10 0.09
0.04 0.04 0.04 0.04 0.05 0.05 0.05 0.04 0.03 0.03 0.02 0.02 0.02 0.02 0.03 0.03 0.03 0.03 0.03 0.03 0.04 0.05 0.04 0.05 0.06 0.05 0.05 0.05 0.05 0.05 0.06 0.07 0.08 0.08 0.08 0.09 0.09 0.10
0.04 0.04 0.03 0.03 0.04 0.04 0.05 0.05 0.05 0.04 0.04 0.04 0.03 0.03 0.03 0.02 0.02 0.02 0.02 0.02 0.03 0.04 0.04 0.05 0.06 0.06 0.05 0.05 0.05 0.05 0.05 0.06 0.07 0.08 0.08 0.09 0.09 0.09
0.03 0.03 0.03 0.03 0.03 0.03 0.04 0.04 0.04 0.05 0.04 0.03 0.03 0.02 0.02 0.02 0.03 0.03 0.03 0.03 0.04 0.04 0.04 0.04 0.05 0.05 0.05 0.05 0.05 0.05 0.05 0.06 0.05 0.06 0.07 0.07 0.08 0.09
0.02 0.02 0.02 0.02 0.02 0.02 0.03 0.03 0.04 0.04 0.04 0.03 0.03 0.03 0.03 0.03 0.03 0.03 0.04 0.04 0.05 0.05 0.04 0.03 0.04 0.04 0.05 0.04 0.04 0.04 0.04 0.05 0.05 0.05 0.06 0.06 0.06 0.07
0.02 0.03 0.02 0.02 0.02 0.02 0.02 0.02 0.03 0.03 0.04 0.03 0.03 0.03 0.03 0.03 0.03 0.03 0.04 0.04 0.04 0.05 0.04 0.03 0.03 0.04 0.04 0.04 0.04 0.04 0.04 0.04 0.04 0.05 0.06 0.07 0.06 0.06
0.03 0.03 0.02 0.02 0.02 0.02 0.02 0.02 0.03 0.03 0.04 0.04 0.03 0.03 0.03 0.03 0.03 0.03 0.04 0.04 0.04 0.04 0.04 0.04 0.04 0.05 0.05 0.05 0.04 0.03 0.03 0.04 0.04 0.05 0.05 0.06 0.07 0.06
0.03 0.03 0.02 0.02 0.02 0.02 0.02 0.02 0.03 0.03 0.03 0.04 0.04 0.03 0.03 0.03 0.04 0.03 0.03 0.03 0.04 0.04 0.04 0.04 0.04 0.05 0.05 0.05 0.04 0.04 0.04 0.04 0.04 0.05 0.05 0.04 0.05 0.05
0.03 0.03 0.03 0.03 0.03 0.03 0.03 0.03 0.03 0.03 0.03 0.04 0.04 0.04 0.03 0.03 0.03 0.03 0.03 0.02 0.03 0.03 0.04 0.04 0.04 0.04 0.04 0.04 0.04 0.04 0.05 0.05 0.05 0.05 0.05 0.04 0.05 0.05
0.02 0.02 0.02 0.02 0.03 0.03 0.03 0.03 0.03 0.04 0.04 0.04 0.04 0.04 0.04 0.03 0.03 0.03 0.03 0.03 0.03 0.03 0.04 0.03 0.03 0.03 0.04 0.05 0.05 0.04 0.04 0.05 0.05 0.05 0.05 0.05 0.05 0.05
0.01 0.02 0.02 0.02 0.02 0.02 0.03 0.03 0.03 0.03 0.03 0.03 0.04 0.04 0.04 0.04 0.04 0.03 0.03 0.03 0.03 0.03 0.03 0.03 0.04 0.04 0.04 0.05 0.04 0.03 0.03 0.04 0.05 0.05 0.05 0.05 0.05 0.05
0.01 0.02 0.02 0.02 0.02 0.02 0.02 0.02 0.03 0.03 0.03 0.03 0.03 0.04 0.04 0.04 0.04 0.04 0.03 0.03 0.03 0.03 0.03 0.04 0.04 0.04 0.03 0.03 0.03 0.02 0.02 0.03 0.04 0.04 0.04 0.04 0.04 0.03
MSLP
1024.12 1023.96 1023.78 1023.59 1023.38 1023.16 1022.93 1022.72 1022.53 1022.38 1022.28 1022.23 1022.22 1022.25 1022.29 1022.35 1022.39 1022.42 1022.44 1022.45 1022.45 1022.47 1022.50 1022.55 1022.62 1022.70 1022.79 1022.88 1022.95 1023.01 1023.06 1023.10 1023.13 1023.15 1023.17 1023.19 1023.20 1023.20
1024.12 1023.99 1023.84 1023.67 1023.47 1023.24 1023.00 1022.76 1022.55 1022.38 1022.26 1022.20 1022.19 1022.22 1022.29 1022.36 1022.43 1022.49 1022.54 1022.57 1022.60 1022.62 1022.66 1022.70 1022.76 1022.82 1022.89 1022.95 1023.00 1023.04 1023.07 1023.09 1023.10 1023.12 1023.14 1023.16 1023.17 1023.18
1024.00 1023.90 1023.77 1023.62 1023.44 1023.22 1022.98 1022.74 1022.52 1022.34 1022.21 1022.14 1022.13 1022.17 1022.24 1022.33 1022.41 1022.49 1022.56 1022.60 1022.64 1022.68 1022.72 1022.77 1022.82 1022.87 1022.92 1022.96 1023.00 1023.02 1023.03 1023.04 1023.06 1023.08 1023.10 1023.13 1023.16 1023.17
1023.77 1023.68 1023.58 1023.45 1023.28 1023.08 1022.86 1022.64 1022.43 1022.26 1022.14 1022.07 1022.06 1022.10 1022.17 1022.26 1022.35 1022.43 1022.50 1022.56 1022.61 1022.66 1022.70 1022.74 1022.79 1022.83 1022.87 1022.90 1022.92 1022.94 1022.95 1022.96 1022.99 1023.02 1023.06 1023.10 1023.15 1023.18
1023.46 1023.37 1023.28 1023.17 1023.03 1022.86 1022.66 1022.47 1022.28 1022.13 1022.03 1021.97 1021.97 1022.00 1022.07 1022.16 1022.24 1022.32 1022.39 1022.45 1022.50 1022.54 1022.58 1022.62 1022.66 1022.70 1022.73 1022.76 1022.78 1022.80 1022.81 1022.84 1022.88 1022.93 1022.99 1023.06 1023.12 1023.17
1023.08 1022.99 1022.91 1022.81 1022.69 1022.54 1022.38 1022.22 1022.07 1021.95 1021.87 1021.83 1021.84 1021.88 1021.95 1022.02 1022.10 1022.17 1022.23 1022.28 1022.32 1022.36 1022.39 1022.42 1022.46 1022.49 1022.52 1022.55 1022.57 1022.60 1022.63 1022.67 1022.73 1022.81 1022.89 1022.99 1023.07 1023.14
1022.66 1022.56 1022.47 1022.38 1022.28 1022.16 1022.04 1021.91 1021.80 1021.71 1021.66 1021.65 1021.67 1021.72 1021.78 1021.86 1021.92 1021.98 1022.03 1022.07 1022.09 1022.12 1022.14 1022.17 1022.20 1022.23 1022.25 1022.29 1022.32 1022.36 1022.41 1022.47 1022.56 1022.66 1022.77 1022.88 1022.98 1023.05
1022.21 1022.10 1022.01 1021.92 1021.83 1021.73 1021.63 1021.54 1021.47 1021.42 1021.40 1021.41 1021.45 1021.51 1021.58 1021.65 1021.72 1021.77 1021.80 1021.83 1021.84 1021.86 1021.87 1021.89 1021.92 1021.95 1021.98 1022.02 1022.07 1022.13 1022.20 1022.28 1022.38 1022.50 1022.62 1022.74 1022.85 1022.93
1021.75 1021.62 1021.51 1021.42 1021.34 1021.26 1021.18 1021.12 1021.08 1021.06 1021.07 1021.11 1021.18 1021.26 1021.34 1021.42 1021.48 1021.53 1021.56 1021.59 1021.60 1021.61 1021.62 1021.64 1021.67 1021.71 1021.76 1021.81 1021.87 1021.95 1022.03 1022.13 1022.24 1022.36 1022.49 1022.61 1022.71 1022.78
1021.26 1021.11 1020.99 1020.89 1020.81 1020.74 1020.68 1020.65 1020.64 1020.65 1020.70 1020.77 1020.86 1020.97 1021.07 1021.16 1021.24 1021.30 1021.34 1021.37 1021.38 1021.40 1021.42 1021.45 1021.49 1021.55 1021.61 1021.68 1021.77 1021.86 1021.95 1022.06 1022.17 1022.29 1022.40 1022.50 1022.59 1022.64
1020.72 1020.56 1020.43 1020.33 1020.25 1020.18 1020.14 1020.13 1020.14 1020.19 1020.28 1020.39 1020.51 1020.65 1020.79 1020.91 1021.01 1021.09 1021.14 1021.19 1021.22 1021.25 1021.29 1021.34 1021.40 1021.48 1021.57 1021.66 1021.77 1021.87 1021.98 1022.09 1022.19 1022.29 1022.38 1022.46 1022.51 1022.53
1020.14 1019.97 1019.83 1019.72 1019.64 1019.58 1019.56 1019.57 1019.61 1019.70 1019.82 1019.97 1020.14 1020.32 1020.49 1020.65 1020.78 1020.89 1020.97 1021.04 1021.09 1021.15 1021.21 1021.29 1021.38 1021.49 1021.60 1021.73 1021.85 1021.98 1022.09 1022.20 1022.29 1022.36 1022.42 1022.46 1022.48 1022.47
1019.52 1019.34 1019.19 1019.08 1019.00 1018.95 1018.94 1018.97 1019.05 1019.17 1019.34 1019.53 1019.75 1019.98 1020.19 1020.39 1020.56 1020.71 1020.82 1020.92 1021.00 1021.08 1021.17 1021.28 1021.40 1021.54 1021.68 1021.84 1021.98 1022.12 1022.24 1022.34 1022.42 1022.48 1022.50 1022.50 1022.48 1022.43
1018.86 1018.68 1018.53 1018.41 1018.34 1018.30 1018.30 1018.36 1018.47 1018.63 1018.84 1019.08 1019.35 1019.62 1019.89 1020.13 1020.34 1020.52 1020.67 1020.79 1020.90 1021.01 1021.13 1021.26 1021.41 1021.57 1021.75 1021.93 1022.10 1022.25 1022.38 1022.48 1022.54 1022.57 1022.57 1022.54 1022.48 1022.39
1018.19 1018.01 1017.86 1017.74 1017.67 1017.64 1017.66 1017.75 1017.89 1018.09 1018.34 1018.63 1018.94 1019.26 1019.57 1019.85 1020.10 1020.31 1020.49 1020.64 1020.77 1020.90 1021.04 1021.20 1021.37 1021.56 1021.76 1021.96 1022.14 1022.31 1022.44 1022.53 1022.59 1022.60 1022.57 1022.51 1022.42 1022.30
1017.53 1017.35 1017.20 1017.09 1017.02 1017.00 1017.04 1017.15 1017.32 1017.55 1017.84 1018.17 1018.53 1018.88 1019.23 1019.55 1019.83 1020.07 1020.27 1020.44 1020.60 1020.75 1020.90 1021.08 1021.27 1021.47 1021.68 1021.90 1022.09 1022.26 1022.40 1022.49 1022.53 1022.53 1022.48 1022.39 1022.28 1022.13
1016.89 1016.71 1016.57 1016.46 1016.40 1016.39 1016.45 1016.58 1016.78 1017.04 1017.36 1017.73 1018.11 1018.50 1018.88 1019.23 1019.53 1019.80 1020.02 1020.21 1020.38 1020.55 1020.72 1020.90 1021.11 1021.32 1021.54 1021.76 1021.97 1022.14 1022.27 1022.35 1022.39 1022.36 1022.30 1022.19 1022.04 1021.86
1016.27 1016.10 1015.97 1015.87 1015.82 1015.83 1015.91 1016.06 1016.28 1016.57 1016.92 1017.31 1017.72 1018.14 1018.54 1018.91 1019.24 1019.52 1019.76 1019.98 1020.17 1020.35 1020.53 1020.73 1020.94 1021.17 1021.40 1021.62 1021.82 1021.99 1022.11 1022.18 1022.19 1022.15 1022.06 1021.92 1021.74 1021.53
1015.65 1015.51 1015.39 1015.31 1015.28 1015.31 1015.41 1015.59 1015.83 1016.14 1016.51 1016.92 1017.36 1017.80 1018.22 1018.61 1018.96 1019.27 1019.54 1019.78 1019.99 1020.20 1020.41 1020.62 1020.85 1021.08 1021.32 1021.54 1021.73 1021.89 1022.00 1022.05 1022.04 1021.97 1021.84 1021.66 1021.44 1021.19
1015.02 1014.91 1014.82 1014.77 1014.77 1014.83 1014.96 1015.16 1015.44 1015.77 1016.17 1016.60 1017.06 1017.51 1017.96 1018.37 1018.76 1019.09 1019.40 1019.67 1019.92 1020.16 1020.40 1020.64 1020.88 1021.13 1021.37 1021.60 1021.79 1021.93 1022.02 1022.05 1022.00 1021.90 1021.73 1021.50 1021.23 1020.92
1014.36 1014.29 1014.24 1014.23 1014.28 1014.38 1014.56 1014.80 1015.10 1015.47 1015.89 1016.35 1016.83 1017.32 1017.79 1018.23 1018.65 1019.03 1019.37 1019.69 1019.99 1020.27 1020.55 1020.83 1021.10 1021.37 1021.63 1021.85 1022.04 1022.17 1022.24 1022.24 1022.16 1022.01 1021.79 1021.51 1021.18 1020.81
1013.68 1013.65 1013.66 1013.71 1013.81 1013.97 1014.20 1014.48 1014.84 1015.25 1015.70 1016.19 1016.71 1017.22 1017.73 1018.21 1018.67 1019.09 1019.49 1019.86 1020.21 1020.55 1020.88 1021.20 1021.51 1021.81 1022.08 1022.32 1022.51 1022.63 1022.68 1022.65 1022.53 1022.34 1022.07 1021.74 1021.34 1020.90
1012.99 1013.03 1013.10 1013.22 1013.38 1013.61 1013.90 1014.24 1014.65 1015.11 1015.61 1016.14 1016.69 1017.25 1017.79 1018.32 1018.83 1019.31 1019.76 1020.19 1020.60 1020.99 1021.37 1021.74 1022.09 1022.42 1022.72 1022.97 1023.16 1023.28 1023.31 1023.26 1023.12 1022.89 1022.58 1022.19 1021.73 1021.22
Thickness
5433 5434 5437 5439 5440 5442 5444 5446 5448 5452 5459 5464 5467 5472 5475 5480 5485 5490 5495 5499 5504 5509 5513 5517 5520 5524 5527 5529 5532 5534 5537 5539 5540 5541 5542 5542 5542 5543
5420 5422 5424 5426 5427 5429 5431 5433 5436 5439 5444 5451 5452 5456 5460 5465 5470 5476 5481 5486 5491 5495 5500 5504 5508 5512 5515 5518 5520 5523 5526 5528 5529 5531 5531 5532 5533 5533
5407 5409 5411 5413 5415 5416 5418 5420 5422 5425 5429 5435 5437 5441 5445 5450 5455 5461 5467 5472 5477 5482 5487 5491 5495 5500 5503 5506 5509 5512 5514 5516 5518 5520 5521 5522 5522 5523
5394 5396 5398 5400 5401 5403 5405 5407 5409 5412 5414 5419 5422 5425 5430 5435 5440 5445 5452 5458 5464 5469 5474 5479 5483 5487 5490 5494 5497 5500 5502 5504 5506 5508 5510 5512 5513 5513
5381 5383 5385 5386 5388 5389 5391 5394 5396 5399 5401 5404 5408 5411 5415 5420 5425 5430 5437 5443 5449 5455 5460 5465 5470 5474 5478 5481 5485 5488 5490 5492 5494 5497 5498 5500 5501 5502
5367 5370 5371 5372 5375 5376 5378 5380 5382 5385 5387 5390 5394 5398 5401 5406 5410 5415 5421 5428 5434 5440 5446 5451 5456 5460 5464 5469 5473 5475 5477 5479 5481 5484 5487 5488 5489 5491
5354 5356 5358 5360 5362 5363 5366 5368 5369 5372 5374 5377 5381 5384 5388 5391 5396 5401 5407 5413 5419 5426 5431 5437 5442 5447 5450 5455 5459 5462 5465 5468 5469 5472 5474 5476 5478 5479
5340 5343 5344 5346 5349 5351 5353 5356 5358 5360 5363 5365 5368 5372 5376 5379 5383 5387 5392 5397 5405 5412 5416 5422 5427 5433 5437 5441 5445 5448 5452 5455 5457 5460 5462 5464 5466 5467
5327 5329 5331 5334 5336 5338 5340 5343 5346 5349 5352 5355 5357 5361 5364 5368 5370 5374 5379 5385 5392 5398 5400 5408 5414 5419 5423 5427 5431 5435 5438 5441 5444 5447 5449 5451 5453 5455
5314 5316 5318 5320 5323 5325 5327 5330 5333 5336 5340 5344 5348 5351 5353 5355 5358 5363 5368 5372 5378 5383 5386 5393 5399 5404 5408 5413 5417 5421 5424 5427 5430 5433 5436 5439 5440 5442
5301 5304 5306 5308 5311 5314 5316 5319 5322 5325 5328 5332 5336 5339 5341 5344 5346 5350 5354 5358 5365 5370 5374 5379 5385 5388 5394 5399 5403 5406 5409 5412 5416 5419 5423 5425 5427 5429
5289 5292 5295 5297 5300 5302 5304 5307 5311 5314 5316 5320 5323 5327 5330 5332 5335 5339 5343 5347 5352 5357 5362 5365 5370 5372 5377 5384 5388 5391 5394 5398 5401 5404 5407 5410 5412 5414
5276 5279 5282 5285 5288 5291 5293 5295 5299 5302 5304 5308 5311 5315 5318 5321 5325 5328 5332 5336 5341 5346 5350 5352 5355 5358 5361 5367 5372 5375 5379 5382 5385 5388 5391 5394 5397 5399
5262 5265 5268 5271 5275 5278 5281 5285 5287 5290 5292 5296 5300 5304 5307 5310 5314 5317 5321 5325 5329 5334 5337 5339 5342 5345 5347 5351 5356 5359 5362 5366 5369 5372 5375 5378 5381 5384
5248 5251 5254 5258 5261 5264 5267 5271 5273 5276 5280 5283 5287 5291 5294 5297 5300 5303 5307 5311 5316 5320 5324 5327 5330 5332 5335 5339 5342 5344 5347 5350 5353 5356 5360 5363 5366 5368
5234 5237 5240 5243 5246 5249 5252 5255 5259 5262 5266 5270 5274 5277 5279 5282 5286 5289 5293 5298 5301 5305 5309 5313 5316 5319 5322 5325 5329 5332 5333 5335 5339 5341 5344 5347 5350 5354
5221 5223 5225 5227 5230 5234 5237 5240 5244 5247 5251 5255 5259 5262 5265 5269 5272 5276 5279 5283 5287 5291 5294 5298 5300 5304 5308 5311 5315 5318 5319 5321 5324 5326 5329 5333 5336 5339
5209 5210 5212 5213 5216 5219 5222 5226 5229 5233 5237 5240 5244 5248 5252 5256 5259 5262 5265 5269 5273 5277 5280 5284 5286 5288 5291 5296 5300 5303 5305 5308 5310 5312 5315 5318 5323 5326
5196 5197 5199 5201 5203 5206 5208 5212 5215 5219 5223 5227 5230 5234 5238 5242 5246 5249 5253 5256 5260 5263 5267 5270 5273 5276 5280 5284 5287 5288 5291 5294 5296 5299 5301 5305 5310 5314
5183 5184 5186 5189 5191 5194 5197 5200 5203 5207 5210 5214 5217 5221 5225 5229 5233 5236 5240 5244 5247 5250 5254 5257 5260 5264 5268 5272 5273 5275 5277 5280 5283 5285 5288 5291 5295 5300
5172 5173 5175 5177 5180 5183 5186 5189 5192 5195 5198 5202 5205 5208 5212 5216 5220 5223 5227 5232 5235 5238 5241 5245 5249 5251 5253 5255 5257 5261 5264 5267 5270 5273 5275 5278 5282 5286
5161 5163 5165 5167 5169 5172 5175 5178 5181 5183 5186 5190 5193 5196 5200 5204 5208 5211 5215 5218 5222 5226 5228 5232 5235 5238 5240 5243 5245 5247 5250 5254 5257 5261 5264 5267 5269 5273
5151 5153 5156 5158 5160 5162 5165 5168 5170 5173 5176 5178 5181 5185 5188 5192 5196 5200 5203 5207 5210 5213 5216 5218 5221 5225 5227 5230 5231 5233 5236 5240 5244 5248 5252 5256 5259 5263